Weather History for Crestview, FL

Change the Weather History Date:

Monday, November 28, 2011

  Actual Average Record
Temperature  
Mean Temperature 44 °F -  
Max Temperature 51 °F - - ()
Min Temperature 38 °F - - ()
Degree Days  
Heating Degree Days 20    
Moisture  
Dew Point 40 °F    
Average Humidity 81    
Maximum Humidity 93    
Minimum Humidity 58    
Precipitation  
Precipitation 0.00 in - - ()
Sea Level Pressure  
Sea Level Pressure 29.95 in    
Wind  
Wind Speed 8 mph (West)    
Max Wind Speed 14 mph    
Max Gust Speed 20 mph    
Visibility 10 miles    
Events      
T = Trace of Precipitation, MM = Missing Value Source: NWS Daily Summary

Daily Weather History Graph

Daily Weather History Graph

Search for Another Location

Airport:

Trip Planner

Search our weather history database for the weather conditions in past years. The results will help you decide how hot, cold, wet, or windy it might be!

Date:

Astronomy

Nov. 28, 2011 Rise Set
Actual Time 6:23 AM CST 4:44 PM CST
Civil Twilight 5:57 AM CST 5:10 PM CST
Nautical Twilight 5:27 AM CST 5:40 PM CST
Astronomical Twilight 4:58 AM CST 6:09 PM CST
Moon 9:34 AM CST 8:27 PM CST
Length of Visible Light 11h 13m
Length of Day
10h 21m
Waxing Crescent, 16% of the Moon is Illuminated
Nov 28
Waxing Crescent
Dec 2
First Quarter
Dec 10
Full
Dec 17
Last Quarter
Dec 24
New

Hourly Weather History & Observations

Time (CST) Temp. Windchill Dew Point Humidity Pressure Visibility Wind Dir Wind Speed Gust Speed Precip Events Conditions
6:44 AM 44.6 °F 39.7 °F 42.8 °F 93% 29.94 in 10.0 mi West 9.2 mph - N/A   Overcast
6:48 AM 44.6 °F 39.7 °F 42.8 °F 93% 29.94 in 10.0 mi West 9.2 mph - N/A   Overcast
6:50 AM 44.6 °F 39.2 °F 42.8 °F 93% 29.94 in 10.0 mi West 10.4 mph - N/A   Overcast
6:55 AM 44.2 °F 40.3 °F 41.9 °F 91% 29.94 in 10.0 mi West 6.9 mph - 0.00 in   Overcast
7:00 AM 44.6 °F 40.7 °F 41.0 °F 87% 29.94 in 10.0 mi West 6.9 mph - N/A   Overcast
7:11 AM 44.6 °F 41.4 °F 42.8 °F 93% 29.94 in 10.0 mi West 5.8 mph - N/A   Overcast
7:20 AM 44.6 °F 40.7 °F 42.8 °F 93% 29.94 in 10.0 mi West 6.9 mph - N/A   Overcast
7:39 AM 44.6 °F 39.7 °F 42.8 °F 93% 29.95 in 10.0 mi WNW 9.2 mph - N/A   Overcast
7:41 AM 44.6 °F 39.7 °F 42.8 °F 93% 29.95 in 10.0 mi WNW 9.2 mph - N/A   Overcast
7:55 AM 44.1 °F 38.6 °F 41.7 °F 91% 29.95 in 10.0 mi West 10.4 mph - N/A   Overcast
7:56 AM 44.6 °F 40.2 °F 41.0 °F 87% 29.95 in 10.0 mi West 8.1 mph - N/A   Overcast
8:01 AM 44.6 °F 40.2 °F 41.0 °F 87% 29.95 in 10.0 mi West 8.1 mph - N/A   Mostly Cloudy
8:03 AM 44.6 °F 40.2 °F 41.0 °F 87% 29.96 in 10.0 mi West 8.1 mph - N/A   Mostly Cloudy
8:08 AM 44.6 °F 38.8 °F 41.0 °F 87% 29.96 in 10.0 mi West 11.5 mph - N/A   Overcast
8:55 AM 45.5 °F 39.9 °F 40.8 °F 84% 29.97 in 10.0 mi West 11.5 mph - N/A   Mostly Cloudy
9:22 AM 46.4 °F 41.5 °F 41.0 °F 81% 29.94 in 10.0 mi West 10.4 mph 19.6 mph N/A   Mostly Cloudy
9:55 AM 49.3 °F - 40.1 °F 71% 29.96 in 10.0 mi West 13.8 mph 19.6 mph N/A   Scattered Clouds
10:55 AM 51.3 °F - 38.5 °F 62% 29.95 in 10.0 mi WNW 12.7 mph 18.4 mph N/A   Scattered Clouds
11:55 AM 51.1 °F - 37.9 °F 61% 29.94 in 10.0 mi WSW 11.5 mph 17.3 mph N/A   Scattered Clouds
12:55 PM 51.4 °F - 37.2 °F 58% 29.94 in 10.0 mi West 8.1 mph 16.1 mph N/A   Mostly Cloudy
1:55 PM 50.5 °F - 37.8 °F 62% 29.92 in 10.0 mi West 9.2 mph - N/A   Mostly Cloudy
2:55 PM 50.2 °F - 37.9 °F 63% 29.92 in 10.0 mi Variable 6.9 mph - N/A   Mostly Cloudy
3:55 PM 49.8 °F - 37.4 °F 62% 29.93 in 10.0 mi West 8.1 mph - N/A   Mostly Cloudy
4:55 PM 47.1 °F - 36.9 °F 68% 29.91 in 10.0 mi WNW 4.6 mph - N/A   Scattered Clouds
5:55 PM 44.8 °F 42.4 °F 37.0 °F 74% 29.93 in 10.0 mi West 4.6 mph - N/A   Scattered Clouds
6:55 PM 43.9 °F 42.3 °F 37.4 °F 78% 29.95 in 10.0 mi West 3.5 mph - N/A   Mostly Cloudy
7:55 PM 41.9 °F 40.0 °F 37.0 °F 83% 29.96 in 10.0 mi WSW 3.5 mph - N/A   Scattered Clouds
8:55 PM 40.1 °F 38.0 °F 36.3 °F 86% 29.97 in 10.0 mi West 3.5 mph - N/A   Partly Cloudy
9:55 PM 39.4 °F 36.1 °F 36.0 °F 88% 29.98 in 10.0 mi WSW 4.6 mph - N/A   Partly Cloudy
10:55 PM 38.8 °F 35.4 °F 35.6 °F 88% 30.00 in 10.0 mi WSW 4.6 mph - N/A   Scattered Clouds
11:55 PM 38.7 °F 35.2 °F 35.4 °F 88% 29.99 in 10.0 mi SW 4.6 mph - N/A   Partly Cloudy